Location: Bodenstein
(51.4537°N, 10.3451°E)
Time: 04:47:09
(UTC+00:00)

Daily predictions for brighter satellites

Satellite Brightness Start Highest point End
(mag) Time Altitude Azimuth Time Altitude Azimuth Time Altitude Azimuth
Cosmos 1869 3.4 00:00:58 10° N 00:05:05 78° E 00:07:40 22° SSE
Cosmos 1408 3.3 00:03:22 22° SSE 00:05:20 44° E 00:08:52 10° NNE
CZ-4 R/B 4.4 00:01:48 10° NNE 00:06:19 47° E 00:09:20 20° SSE
SL-4 R/B 1.8 00:05:33 20° SW 00:07:56 55° SSE 00:11:28 10° E
X-37B 2.9 00:12:09 13° SE 00:12:09 13° SE 00:12:51 10° ESE
Cosmos 1437 Rocket 3.9 00:09:03 10° N 00:12:46 39° ENE 00:16:14 11° SE
Lacrosse 5 rocket 2.7 00:10:25 10° WNW 00:13:44 34° N 00:17:04 10° ENE
NOSS 2-3 (C) 4.2 00:15:36 23° S 00:17:49 44° ESE 00:22:28 10° NE
PSLV R/B 4.1 00:13:59 10° N 00:18:09 52° WNW 00:21:01 20° SW
CZ-3B R/B 3.5 00:04:33 10° W 00:18:12 65° N 00:21:53 10° ENE
Cosmos 1174 4.5 00:15:06 20° SSW 00:19:01 71° SE 00:23:37 10° NE
Cosmos 2058 4.2 00:16:08 14° SSE 00:19:03 31° E 00:22:42 10° NNE
Cosmos 1242 Rocket 4.5 00:18:02 10° N 00:21:06 26° ENE 00:24:11 10° SE
Cosmos 1953 Rocket 3.8 00:18:21 21° S 00:21:09 62° E 00:25:31 10° NNE
Cosmos 1634 Rocket 4.5 00:21:21 10° NNW 00:27:23 49° W 00:31:49 18° SSW
In-Cosmos 22 Rocket 4.2 00:24:50 20° S 00:28:52 84° ESE 00:34:24 10° NNE
Cosmos 2279 Rocket 4.0 00:23:02 10° NNW 00:29:17 71° W 00:34:06 17° S
Aureole 3 4.4 00:29:33 10° NNW 00:32:39 28° W 00:34:38 19° SW
FALCON 9 DEB 3.3 00:30:17 10° W 00:33:25 65° N 00:36:33 10° ENE
Helios 1A 3.1 00:32:59 21° S 00:35:41 62° WSW 00:39:52 10° NNW
Cosmos 1892 2.8 00:33:27 23° SSW 00:35:45 69° WNW 00:39:39 10° N
FALCON 9 DEB 3.3 00:33:34 10° WNW 00:36:59 75° N 00:40:23 10° E
Cosmos 1758 Rocket 4.2 00:34:16 19° SW 00:37:12 46° WNW 00:41:28 10° N
CREW DRAGON DEMO-1 DEB 4.5 00:37:52 15° SE 00:37:52 15° SE 00:39:02 10° ESE
Helios 1B rocket 3.8 00:34:03 10° NNE 00:37:42 30° E 00:40:58 12° SSE
Cosmos 1842 Rocket 4.0 00:33:31 10° N 00:37:50 60° ENE 00:41:54 11° SSE
Cosmos 990 Rocket 4.0 00:32:42 10° NNW 00:37:54 69° WSW 00:42:18 14° SSE
Cosmos 1943 4.0 00:36:00 15° S 00:40:10 40° ESE 00:45:24 10° NE
Cosmos 1898 Rocket 3.5 00:36:07 10° NNW 00:41:23 79° WSW 00:46:24 11° SSE
Cosmos 1943 Rocket 2.8 00:37:11 10° NW 00:42:15 38° WSW 00:45:49 18° SSW
Cosmos 1603 4.4 00:41:12 16° S 00:45:29 45° ESE 00:50:52 10° NE
Cosmos 1937 Rocket 3.6 00:41:04 10° NNW 00:46:26 87° ENE 00:51:46 10° SSE
NOSS 8 (E) 4.3 00:45:01 24° SSW 00:46:38 56° SE 00:49:33 10° NE
NPP 4.4 00:41:34 10° NNE 00:46:46 45° E 00:51:30 12° S
Cosmos 540 Rocket 4.3 00:43:17 14° S 00:47:14 40° ESE 00:52:00 10° NE
EO 1 Del DPAF 4.4 00:46:40 10° N 00:50:00 32° WNW 00:52:33 15° WSW
Cosmos 1633 4.4 00:47:10 10° SE 00:50:01 24° E 00:52:54 10° NE
USA 229 DEB 3.7 00:46:21 17° SSW 00:51:24 66° SE 00:58:15 10° NE
USA 229 3.8 00:46:28 17° SSW 00:51:30 66° SE 00:58:20 10° NE
UNK 3.8 00:47:40 10° SSE 00:52:15 79° ENE 00:56:54 10° NNW
Resurs 1-4 Rocket 2.4 00:48:20 10° NNE 00:53:37 62° ESE 00:58:07 14° S
Cosmos-2242 4.4 00:51:47 10° NNW 00:55:23 25° W 00:57:54 15° SW
FALCON 9 DEB 3.3 00:52:32 10° W 00:55:37 62° N 00:58:41 10° E
Meteor 2-2 Rocket 4.4 00:49:42 10° NNW 00:55:44 76° W 01:01:22 12° S
FALCON 9 DEB 3.4 00:55:01 10° W 00:58:07 62° N 01:01:14 10° E
Cosmos 921 Rocket 4.2 00:57:10 11° SSE 01:00:42 32° ESE 01:04:27 10° NE
Lacrosse 4 Rocket 2.7 00:57:02 10° NNW 01:01:00 42° NE 01:04:52 10° ESE
Cosmos 1356 4.0 00:59:30 19° SW 01:01:37 45° WNW 01:04:54 10° N
NOSS 3-1 (C) 3.4 00:56:48 14° SW 01:01:42 82° NW 01:08:19 10° NE
CZ-2D R/B 2.2 00:56:53 10° NNE 01:02:07 70° ESE 01:06:36 14° S
FALCON 9 DEB 3.3 01:01:39 10° W 01:04:46 63° N 01:07:50 10° E
Cosmos 405 Rocket 2.8 01:03:33 19° SSW 01:06:04 61° WNW 01:09:44 10° N
SL-16 R/B 3.0 01:02:11 10° WSW 01:07:32 45° NW 01:13:01 10° NNE
Nadezhda 4 Rocket 4.0 01:03:27 14° S 01:08:49 89° W 01:15:00 10° N
USA 215 4.0 01:03:10 10° ENE 01:09:32 56° N 01:15:53 10° W
NOSS 2-3 (E) 3.8 01:06:52 14° SW 01:10:28 78° NW 01:15:38 10° NE
NOSS 3-1 (A) 3.4 01:06:18 15° SW 01:10:52 77° SE 01:17:24 10° NE
ADEOS II 3.0 01:06:14 10° NNE 01:11:17 43° E 01:16:16 10° S
Cosmos 1825 2.4 01:08:39 18° SSW 01:11:20 57° WNW 01:15:04 10° N
Cosmos 2237 Rocket 4.2 01:09:03 10° W 01:13:26 22° NW 01:17:49 10° NNE
MINOTAUR 4 R/B 4.2 01:12:30 10° SSE 01:16:00 73° ENE 01:19:33 10° N
SL-16 R/B 2.6 01:11:19 10° S 01:17:28 64° WSW 01:23:38 10° NNW
USA 281 3.7 01:11:52 10° SE 01:18:20 64° NE 01:24:51 10° NNW
Cosmos 1076 Rocket 3.8 01:14:38 12° S 01:18:31 63° E 01:22:44 10° NNE
ARGOS Delta rocket 4.2 01:13:49 10° N 01:19:18 77° WNW 01:24:13 13° SSW
NOSS 8 (F) 4.4 01:17:04 15° SW 01:19:35 64° NW 01:22:33 10° NE
AQUA 4.1 01:15:06 10° NNE 01:19:53 67° ESE 01:24:23 11° S
Cosmos 468 Rocket 4.1 01:15:38 15° SW 01:20:00 69° WNW 01:25:15 10° NNE
Cosmos 2369 Rocket 2.8 01:15:55 10° NW 01:21:09 37° WSW 01:26:12 11° S
Cosmos 2151 4.0 01:19:39 10° SSE 01:23:37 42° E 01:27:36 10° NNE
Cosmos 2098 Rocket 3.5 01:19:23 13° SSW 01:24:37 76° W 01:29:14 10° N
Cosmos 2221 2.9 01:20:44 10° NNW 01:24:52 46° W 01:28:29 13° SSW
SeaSat 1 4.2 01:21:44 10° NE 01:25:44 24° ESE 01:29:41 10° SSE
Cosmos 1656 Rocket 4.0 01:23:32 10° NW 01:29:00 48° WSW 01:34:26 10° S
Meteor 2-15 4.5 01:24:23 10° NNW 01:30:33 73° W 01:36:38 10° S
Cosmos 372 Rocket 4.0 01:25:40 10° NNW 01:30:53 72° WSW 01:36:07 10° SSE
IDEFIX/ARIANE 42P 3.9 01:26:14 10° NNE 01:31:04 36° E 01:35:52 10° SSE
Aureole 3 Rocket 2.9 01:27:36 10° NNW 01:31:06 68° W 01:35:41 10° S
BREEZE-M DEB (TANK) 2.5 01:35:28 10° WSW 01:37:36 60° S 01:42:46 10° E
ADEOS Rocket 3.4 01:30:30 10° SSE 01:37:54 81° WSW 01:44:37 10° NNW
DELTA 2 DEB (DPAF) 4.2 01:34:27 10° SSE 01:38:53 86° ENE 01:43:22 10° NNW
Meteor 1-29 3.1 01:36:01 10° NNE 01:39:26 68° ESE 01:42:49 10° S
Cosmos 1763 Rocket 4.0 01:35:27 11° SW 01:40:08 50° WNW 01:45:10 10° NNE
NOSS 8 (H) 4.4 01:42:36 11° SW 01:45:30 61° NW 01:48:28 10° NE
Cosmos 1092 Rocket 4.0 01:40:29 10° SSW 01:46:37 79° W 01:52:49 10° N
X-37B 1.8 01:44:24 11° SW 01:46:51 25° S 01:49:32 10° ESE
ATLAS 5 CENTAUR R/B 2.7 01:43:44 10° S 01:47:16 31° ESE 01:51:12 10° ENE
SL-4 R/B 1.7 01:43:42 10° W 01:47:25 86° N 01:50:55 10° E
Cosmos 1606 3.4 01:43:53 10° NNW 01:47:30 38° W 01:51:03 10° SSW
Cosmos 1437 Rocket 4.3 01:45:46 10° NW 01:48:45 21° W 01:51:35 11° SW
CENTAUR R/B 4.2 01:45:11 10° NW 01:52:36 50° NNE 02:00:59 10° ESE
Cosmos 2292 Rocket 3.7 01:50:13 10° SSE 01:53:08 42° E 01:55:58 10° NNE
Lacrosse 5 rocket 2.5 01:49:58 10° WNW 01:53:23 41° NNE 01:56:52 10° E
Cosmos 1242 Rocket 3.7 01:52:49 10° NW 01:55:53 27° W 01:58:58 10° SSW
Cosmos 2058 4.1 01:52:23 10° SW 01:55:57 28° WNW 01:59:33 10° N
NOSS 2-2 (D) 4.0 01:56:04 10° SSW 01:59:16 38° SE 02:02:47 10° NE
Meteor 2-3 Rocket 4.0 01:56:18 10° S 02:01:52 70° E 02:07:26 10° NNE
Meteor 1-28 Rocket 3.4 02:00:14 10° S 02:03:58 57° W 02:07:44 10° NNW
IRS-1D 3.6 01:59:39 10° NNE 02:04:53 89° SE 02:09:58 10° SSW
USA 290 2.3 02:04:12 10° SSW 02:07:25 78° ESE 02:10:39 10° NNE
CBERS-1 4.2 02:03:56 10° NNE 02:09:06 80° ESE 02:14:15 10° SSW
FALCON 9 DEB 2.9 02:06:08 10° WNW 02:09:16 84° NNE 02:12:24 10° ESE
MSX 4.5 02:04:08 10° NNE 02:09:50 56° E 02:15:29 10° S
CREW DRAGON DEMO-1 DEB 2.3 02:08:24 10° WSW 02:10:50 63° SSE 02:13:18 10° E
Helios 1B rocket 3.5 02:09:17 10° N 02:12:57 32° WNW 02:16:35 10° SW
Cosmos 1766 Rocket 4.3 02:08:53 10° S 02:13:12 54° E 02:17:36 10° NNE
FALCON 9 DEB 3.5 02:10:33 10° W 02:13:46 40° SSW 02:16:57 10° SE
Okean 3 Rocket 4.3 02:09:32 10° S 02:13:48 53° E 02:18:05 10° NNE
USA 307 4.0 02:11:03 10° SSW 02:14:52 33° SE 02:18:42 10° ENE
Meteor 1-26 Rocket 4.3 02:09:22 10° NNW 02:15:09 76° W 02:21:05 10° S
Cosmos 1151 Rocket 3.1 02:11:31 10° N 02:15:50 83° E 02:20:05 10° SSE
